Jefferson, NC

7:32 PM EDT on July 19, 2019 (GMT -0400)
Ashe County

Weather History for KGEV - May, 2019

Change the Weather History Date:

Wednesday, May 29, 2019

  Actual Average Record
Temperature  
Mean Temperature 72 °F -  
Max Temperature 81 °F 73 °F 86 °F (1991)
Min Temperature 64 °F 51 °F 39 °F (1968)
Cooling Degree Days 8    
Growing Degree Days 22 (Base 50)    
Moisture  
Dew Point 59 °F    
Average Humidity 63    
Maximum Humidity 78    
Minimum Humidity 44    
Precipitation  
Precipitation 0.00 in - - ()
Sea Level Pressure  
Sea Level Pressure 30.01 in    
Wind  
Wind Speed 7 mph (West)    
Max Wind Speed 18 mph    
Max Gust Speed 25 mph    
Visibility 10 miles    
Events      
Averages and records for this station are not official NWS values.
T = Trace of Precipitation, MM = Missing Value Source: NWS Daily Summary

Daily Weather History Graph

Daily Weather History Graph

Search for Another Location

Airport or City:

Astronomy

May. 29, 2019 Rise Set
Actual Time 6:10 AM EDT 8:36 PM EDT
Civil Twilight 5:40 AM EDT 9:05 PM EDT
Nautical Twilight 5:04 AM EDT 9:42 PM EDT
Astronomical Twilight 4:23 AM EDT 10:23 PM EDT
Moon 3:37 AM EDT (5/29) 3:52 PM EDT (5/29)
Length of Visible Light 15h 25m
Length of Day
14h 25m
Waning Crescent, 23% of the Moon is Illuminated
May 29
Waning Crescent
Jun 3
New
Jun 10
First Quarter
Jun 17
Full
Jun 25
Last Quarter

Hourly Weather History & Observations

Time (EDT) Temp. Heat Index Dew Point Humidity Pressure Visibility Wind Dir Wind Speed Gust Speed Precip Events Conditions
12:05 AM 71.2 °F - 59.5 °F 66% 30.01 in 10.0 mi West 3.5 mph - N/A   Clear
12:25 AM 70.7 °F - 59.7 °F 68% 30.02 in 10.0 mi Calm Calm - N/A   Clear
12:45 AM 70.3 °F - 59.9 °F 69% 30.02 in 10.0 mi Calm Calm - N/A   Clear
1:05 AM 70.2 °F - 59.9 °F 70% 30.01 in 10.0 mi Calm Calm - N/A   Scattered Clouds
1:25 AM 70.0 °F - 60.1 °F 71% 30.01 in 10.0 mi WSW 4.6 mph - N/A   Scattered Clouds
1:45 AM 70.5 °F - 60.4 °F 70% 30.01 in 10.0 mi West 3.5 mph - N/A   Scattered Clouds
2:05 AM 70.0 °F - 60.8 °F 73% 30.01 in 10.0 mi Calm Calm - N/A   Scattered Clouds
2:25 AM 69.4 °F - 60.6 °F 73% 30.01 in 10.0 mi WSW 4.6 mph - N/A   Mostly Cloudy
2:45 AM 71.1 °F - 61.2 °F 71% 30.00 in 10.0 mi WSW 11.5 mph 21.9 mph N/A   Scattered Clouds
3:05 AM 71.1 °F - 61.5 °F 72% 30.01 in 10.0 mi West 5.8 mph - N/A   Mostly Cloudy
3:25 AM 71.2 °F - 61.7 °F 72% 30.00 in 10.0 mi West 9.2 mph - N/A   Mostly Cloudy
3:45 AM 71.1 °F - 61.7 °F 72% 29.99 in 10.0 mi West 11.5 mph 23.0 mph N/A   Mostly Cloudy
4:05 AM 71.1 °F - 61.5 °F 72% 29.99 in 10.0 mi West 10.4 mph 23.0 mph N/A   Scattered Clouds
4:25 AM 70.7 °F - 61.7 °F 73% 29.99 in 10.0 mi West 12.7 mph 18.4 mph N/A   Scattered Clouds
4:45 AM 70.7 °F - 61.7 °F 73% 29.99 in 10.0 mi West 17.3 mph 23.0 mph N/A   Scattered Clouds
5:05 AM 70.5 °F - 61.7 °F 74% 29.99 in 10.0 mi West 5.8 mph 23.0 mph N/A   Mostly Cloudy
5:25 AM 70.0 °F - 61.7 °F 75% 29.99 in 10.0 mi WNW 13.8 mph 18.4 mph N/A   Mostly Cloudy
5:45 AM 70.2 °F - 61.7 °F 74% 30.01 in 10.0 mi WNW 11.5 mph 18.4 mph N/A   Overcast
6:05 AM 69.8 °F - 61.7 °F 75% 30.01 in 10.0 mi WNW 10.4 mph 16.1 mph N/A   Overcast
6:25 AM 69.8 °F - 61.9 °F 76% 30.02 in 10.0 mi WNW 6.9 mph 11.5 mph N/A   Overcast
6:45 AM 70.2 °F - 61.9 °F 75% 30.02 in 10.0 mi WNW 8.1 mph - N/A   Overcast
7:05 AM 70.0 °F - 61.7 °F 75% 30.02 in 10.0 mi WSW 5.8 mph - N/A   Mostly Cloudy
7:25 AM 70.2 °F - 61.5 °F 74% 30.03 in 10.0 mi WNW 8.1 mph - N/A   Mostly Cloudy
7:45 AM 69.8 °F - 61.7 °F 75% 30.03 in 10.0 mi West 10.4 mph - N/A   Mostly Cloudy
8:05 AM 70.5 °F - 61.7 °F 74% 30.04 in 10.0 mi Calm Calm - N/A   Mostly Cloudy
8:25 AM 70.2 °F - 61.7 °F 74% 30.03 in 10.0 mi WNW 5.8 mph - N/A   Overcast
8:45 AM 71.8 °F - 61.9 °F 71% 30.03 in 10.0 mi West 5.8 mph - N/A   Overcast
9:05 AM 71.6 °F - 61.7 °F 71% 30.03 in 10.0 mi West 8.1 mph - N/A   Overcast
9:25 AM 72.1 °F - 61.9 °F 70% 30.04 in 10.0 mi WSW 5.8 mph - N/A   Overcast
9:45 AM 72.5 °F - 61.5 °F 68% 30.04 in 10.0 mi West 9.2 mph - N/A   Overcast
10:05 AM 72.7 °F - 61.5 °F 68% 30.05 in 10.0 mi West 10.4 mph - N/A   Overcast
10:25 AM 72.9 °F - 61.7 °F 68% 30.05 in 10.0 mi West 10.4 mph - N/A   Overcast
10:45 AM 72.9 °F - 61.7 °F 68% 30.05 in 10.0 mi West 9.2 mph - N/A   Overcast
11:25 AM 75.2 °F - 60.6 °F 60% 30.04 in 10.0 mi West 9.2 mph 18.4 mph N/A   Scattered Clouds
11:45 AM 76.5 °F - 60.8 °F 58% 30.04 in 10.0 mi WNW 15.0 mph - N/A   Scattered Clouds
12:05 PM 75.9 °F - 60.8 °F 59% 30.05 in 10.0 mi WSW 8.1 mph 16.1 mph N/A   Mostly Cloudy
12:25 PM 76.6 °F - 61.0 °F 58% 30.05 in 10.0 mi West 12.7 mph - N/A   Scattered Clouds
12:45 PM 77.7 °F - 60.8 °F 56% 30.04 in 10.0 mi West 11.5 mph 16.1 mph N/A   Scattered Clouds
1:05 PM 77.7 °F - 60.6 °F 55% 30.03 in 10.0 mi West 9.2 mph 18.4 mph N/A   Scattered Clouds
1:25 PM 77.5 °F - 59.9 °F 54% 30.02 in 10.0 mi WSW 8.1 mph - N/A   Scattered Clouds
1:45 PM 78.3 °F - 59.4 °F 52% 30.01 in 10.0 mi WSW 9.2 mph - N/A   Scattered Clouds
2:05 PM 79.9 °F - 58.5 °F 48% 30.01 in 10.0 mi WSW 10.4 mph - N/A   Scattered Clouds
2:25 PM 80.6 °F 80.8 °F 57.6 °F 45% 30.00 in 10.0 mi West 12.7 mph - N/A   Clear
2:45 PM 80.2 °F 80.6 °F 57.7 °F 46% 30.01 in 10.0 mi West 10.4 mph 25.3 mph N/A   Clear
3:05 PM 79.5 °F - 57.7 °F 47% 29.99 in 10.0 mi West 12.7 mph 17.3 mph N/A   Clear
3:25 PM 81.3 °F 81.3 °F 57.4 °F 44% 30.00 in 10.0 mi West 6.9 mph 21.9 mph N/A   Scattered Clouds
3:45 PM 80.6 °F 80.7 °F 56.7 °F 44% 29.99 in 10.0 mi WSW 11.5 mph 17.3 mph N/A   Clear
4:05 PM 80.4 °F 80.7 °F 57.2 °F 45% 29.99 in 10.0 mi West 11.5 mph 18.4 mph N/A   Clear
4:25 PM 81.5 °F 81.5 °F 57.9 °F 44% 29.98 in 10.0 mi WSW 5.8 mph 20.7 mph N/A   Clear
4:45 PM 80.2 °F 80.5 °F 57.0 °F 45% 29.98 in 10.0 mi West 18.4 mph 24.2 mph N/A   Clear
5:05 PM 80.8 °F 80.9 °F 57.0 °F 44% 29.99 in 10.0 mi West 17.3 mph 24.2 mph N/A   Clear
5:25 PM 79.3 °F - 57.2 °F 47% 29.99 in 10.0 mi West 18.4 mph 23.0 mph N/A   Scattered Clouds
5:45 PM 79.0 °F - 57.4 °F 47% 29.99 in 10.0 mi West 11.5 mph 21.9 mph N/A   Mostly Cloudy
6:05 PM 78.8 °F - 57.4 °F 48% 30.01 in 10.0 mi West 10.4 mph 19.6 mph N/A   Scattered Clouds
6:25 PM 70.3 °F - 56.1 °F 61% 30.02 in 10.0 mi NW 13.8 mph 19.6 mph N/A   Mostly Cloudy
6:45 PM 69.8 °F - 55.9 °F 61% 30.02 in 10.0 mi NW 13.8 mph 18.4 mph N/A   Scattered Clouds
7:05 PM 69.1 °F - 55.8 °F 62% 30.02 in 10.0 mi NW 9.2 mph - N/A   Scattered Clouds
7:25 PM 69.4 °F - 55.9 °F 62% 30.02 in 10.0 mi Calm Calm - N/A   Scattered Clouds
7:45 PM 69.6 °F - 55.9 °F 62% 30.01 in 10.0 mi NNW 5.8 mph - N/A   Clear
8:05 PM 70.0 °F - 56.8 °F 63% 30.01 in 10.0 mi WSW 4.6 mph - N/A   Clear
8:25 PM 68.9 °F - 56.8 °F 65% 30.00 in 10.0 mi SW 3.5 mph - N/A   Clear
8:45 PM 68.7 °F - 56.8 °F 66% 30.00 in 10.0 mi West 6.9 mph - N/A   Clear
9:05 PM 67.5 °F - 57.2 °F 70% 30.00 in 10.0 mi WNW 3.5 mph - N/A   Clear
9:25 PM 65.7 °F - 57.2 °F 74% 30.00 in 10.0 mi Calm Calm - N/A   Clear
9:45 PM 64.0 °F - 57.0 °F 78% 30.00 in 10.0 mi Calm Calm - N/A   Clear
10:05 PM 68.5 °F - 56.5 °F 65% 30.01 in 10.0 mi West 8.1 mph - N/A   Clear
10:25 PM 70.3 °F - 55.9 °F 60% 30.01 in 10.0 mi West 9.2 mph - N/A   Clear
11:05 PM 70.7 °F - 52.2 °F 52% 30.02 in 10.0 mi WSW 4.6 mph - N/A   Clear
11:25 PM 70.9 °F - 51.3 °F 50% 30.02 in 10.0 mi SW 4.6 mph - N/A   Clear
11:45 PM 70.0 °F - 51.8 °F 52% 30.02 in 10.0 mi Calm Calm - N/A   Clear